When you browse on this site, cookies collect data to enhance your experience and personalize the content and advertising you see.
Visit our Privacy Policy to learn more. By continuing to use the site, you agree to this use of cookies and data.
  • en Suisse
  • Liste des pays
  • À 7 jours
  • Température de l'eau
  • Carte météo
  • Widgets météo
  • user-avatar
    Se connecter

    Météo par heure à Frendshin

    Ce jour, 9 Décembre, Lundi

    Heure Température Précipitation Vent Pression Humidité
    00:00 +26°C° 0 mm 5 m/s 757 mmHg 91%
    01:00 +26°C° 0 mm 5 m/s 757 mmHg 91%
    02:00 +26°C° 0 mm 4 m/s 756 mmHg 91%
    03:00 +26°C° 0 mm 4 m/s 756 mmHg 92%
    04:00 +25°C° 0 mm 4 m/s 757 mmHg 93%
    05:00 +25°C° 0 mm 4 m/s 757 mmHg 94%
    06:00 +26°C° 0 mm 4 m/s 757 mmHg 90%
    07:00 +27°C° 0 mm 3 m/s 758 mmHg 85%
    08:00 +29°C° 0 mm 3 m/s 758 mmHg 82%
    09:00 +30°C° 0.3 mm 3 m/s 758 mmHg 72%
    10:00 +33°C° 0.3 mm 3 m/s 758 mmHg 63%
    11:00 +35°C° 0.3 mm 3 m/s 758 mmHg 54%
    12:00 +34°C° 0.7 mm 3 m/s 757 mmHg 65%
    13:00 +32°C° 0.7 mm 4 m/s 756 mmHg 76%
    14:00 +30°C° 0.7 mm 5 m/s 756 mmHg 86%
    15:00 +29°C° 0.3 mm 5 m/s 756 mmHg 86%
    16:00 +29°C° 0.3 mm 5 m/s 756 mmHg 85%
    17:00 +28°C° 0.3 mm 5 m/s 756 mmHg 84%
    18:00 +28°C° 0 mm 5 m/s 756 mmHg 85%
    19:00 +27°C° 0 mm 5 m/s 757 mmHg 85%
    20:00 +27°C° 0 mm 6 m/s 757 mmHg 86%
    21:00 +26°C° 0.2 mm 5 m/s 757 mmHg 87%
    22:00 +26°C° 0.2 mm 5 m/s 757 mmHg 88%
    23:00 +26°C° 0.2 mm 5 m/s 758 mmHg 89%

    Demain, 10 Décembre, Mardi

    Heure Température Précipitation Vent Pression Humidité
    00:00 +26°C° 0.3 mm 5 m/s 757 mmHg 91%
    01:00 +25°C° 0.3 mm 4 m/s 757 mmHg 92%
    02:00 +25°C° 0.3 mm 4 m/s 756 mmHg 94%
    03:00 +25°C° 0.8 mm 4 m/s 756 mmHg 95%
    04:00 +23°C° 0.8 mm 4 m/s 757 mmHg 96%
    05:00 +23°C° 0.8 mm 4 m/s 757 mmHg 97%
    06:00 +25°C° 1.2 mm 4 m/s 757 mmHg 95%
    07:00 +26°C° 1.2 mm 4 m/s 758 mmHg 92%
    08:00 +27°C° 1.2 mm 4 m/s 758 mmHg 89%
    09:00 +28°C° 1.2 mm 4 m/s 758 mmHg 89%
    10:00 +29°C° 1.2 mm 4 m/s 758 mmHg 88%
    11:00 +29°C° 1.2 mm 5 m/s 758 mmHg 87%
    12:00 +29°C° 1 mm 5 m/s 757 mmHg 87%
    13:00 +29°C° 1 mm 5 m/s 756 mmHg 86%
    14:00 +29°C° 1 mm 5 m/s 756 mmHg 86%
    15:00 +29°C° 0.6 mm 6 m/s 756 mmHg 89%
    16:00 +28°C° 0.6 mm 6 m/s 755 mmHg 91%
    17:00 +27°C° 0.6 mm 6 m/s 755 mmHg 93%
    18:00 +26°C° 0.4 mm 6 m/s 756 mmHg 94%
    19:00 +26°C° 0.4 mm 6 m/s 756 mmHg 95%
    20:00 +26°C° 0.4 mm 6 m/s 757 mmHg 96%
    21:00 +24°C° 0.2 mm 6 m/s 757 mmHg 97%
    22:00 +25°C° 0.2 mm 5 m/s 757 mmHg 97%
    23:00 +25°C° 0.2 mm 5 m/s 757 mmHg 97%

    Après-demain, 11 Décembre, Mercredi

    Heure Température Précipitation Vent Pression Humidité
    00:00 +25°C° 0.9 mm 5 m/s 757 mmHg 98%
    01:00 +25°C° 0.9 mm 5 m/s 756 mmHg 98%
    02:00 +23°C° 0.9 mm 5 m/s 756 mmHg 98%
    03:00 +23°C° 0.9 mm 5 m/s 756 mmHg 98%
    04:00 +23°C° 0.9 mm 5 m/s 756 mmHg 98%
    05:00 +23°C° 0.9 mm 5 m/s 756 mmHg 98%
    06:00 +25°C° 0.5 mm 5 m/s 757 mmHg 96%
    07:00 +26°C° 0.5 mm 5 m/s 757 mmHg 94%
    08:00 +27°C° 0.5 mm 4 m/s 758 mmHg 92%
    09:00 +28°C° 0.6 mm 5 m/s 758 mmHg 88%
    10:00 +29°C° 0.6 mm 5 m/s 758 mmHg 84%
    11:00 +30°C° 0.6 mm 5 m/s 758 mmHg 79%
    12:00 +30°C° 0.5 mm 5 m/s 757 mmHg 79%
    13:00 +30°C° 0.5 mm 5 m/s 756 mmHg 78%
    14:00 +30°C° 0.5 mm 5 m/s 755 mmHg 77%
    15:00 +29°C° 0.3 mm 5 m/s 755 mmHg 81%
    16:00 +28°C° 0.3 mm 5 m/s 755 mmHg 85%
    17:00 +27°C° 0.3 mm 5 m/s 755 mmHg 89%
    18:00 +27°C° 0.1 mm 5 m/s 755 mmHg 91%
    19:00 +26°C° 0.1 mm 5 m/s 756 mmHg 93%
    20:00 +26°C° 0.1 mm 5 m/s 756 mmHg 95%
    21:00 +25°C° 0 mm 5 m/s 756 mmHg 95%
    22:00 +25°C° 0 mm 5 m/s 756 mmHg 95%
    23:00 +25°C° 0 mm 5 m/s 756 mmHg 95%

    12 Décembre, Jeudi

    Heure Température Précipitation Vent Pression Humidité
    00:00 +25°C° 0.1 mm 5 m/s 756 mmHg 94%
    01:00 +25°C° 0.1 mm 5 m/s 755 mmHg 94%
    02:00 +25°C° 0.1 mm 5 m/s 755 mmHg 94%
    03:00 +25°C° 0.3 mm 5 m/s 755 mmHg 95%
    04:00 +25°C° 0.3 mm 5 m/s 755 mmHg 96%
    05:00 +25°C° 0.3 mm 5 m/s 755 mmHg 96%
    06:00 +25°C° 0.5 mm 4 m/s 756 mmHg 95%
    07:00 +26°C° 0.5 mm 4 m/s 756 mmHg 94%
    08:00 +26°C° 0.5 mm 4 m/s 757 mmHg 93%
    09:00 +27°C° 0.5 mm 4 m/s 757 mmHg 90%
    10:00 +28°C° 0.5 mm 4 m/s 757 mmHg 86%
    11:00 +29°C° 0.5 mm 5 m/s 757 mmHg 82%
    12:00 +29°C° 0.4 mm 5 m/s 756 mmHg 80%
    13:00 +30°C° 0.4 mm 5 m/s 755 mmHg 78%
    14:00 +30°C° 0.4 mm 5 m/s 755 mmHg 76%
    15:00 +29°C° 0 mm 5 m/s 754 mmHg 77%
    16:00 +29°C° 0 mm 5 m/s 754 mmHg 78%
    17:00 +28°C° 0 mm 6 m/s 754 mmHg 79%
    18:00 +28°C° 0 mm 6 m/s 755 mmHg 81%
    19:00 +27°C° 0 mm 5 m/s 755 mmHg 83%
    20:00 +27°C° 0 mm 5 m/s 756 mmHg 86%
    21:00 +27°C° 0 mm 5 m/s 756 mmHg 87%
    22:00 +27°C° 0 mm 5 m/s 756 mmHg 87%
    23:00 +26°C° 0 mm 5 m/s 756 mmHg 88%

    13 Décembre, Vendredi

    Heure Température Précipitation Vent Pression Humidité
    00:00 +26°C° 0.2 mm 5 m/s 755 mmHg 89%
    01:00 +26°C° 0.2 mm 5 m/s 755 mmHg 89%
    02:00 +26°C° 0.2 mm 5 m/s 755 mmHg 90%
    03:00 +26°C° 0.7 mm 4 m/s 755 mmHg 92%
    04:00 +25°C° 0.7 mm 4 m/s 755 mmHg 94%
    05:00 +25°C° 0.7 mm 4 m/s 755 mmHg 96%
    06:00 +26°C° 0.9 mm 4 m/s 755 mmHg 92%
    07:00 +27°C° 0.9 mm 4 m/s 756 mmHg 89%
    08:00 +28°C° 0.9 mm 4 m/s 756 mmHg 86%
    09:00 +29°C° 0.5 mm 4 m/s 756 mmHg 82%
    10:00 +30°C° 0.5 mm 4 m/s 756 mmHg 78%
    11:00 +32°C° 0.5 mm 4 m/s 756 mmHg 74%
    12:00 +32°C° 0.5 mm 4 m/s 755 mmHg 77%
    13:00 +32°C° 0.5 mm 5 m/s 755 mmHg 79%
    14:00 +30°C° 0.5 mm 5 m/s 754 mmHg 82%
    15:00 +29°C° 0.3 mm 5 m/s 754 mmHg 85%
    16:00 +29°C° 0.3 mm 5 m/s 754 mmHg 88%
    17:00 +28°C° 0.3 mm 5 m/s 754 mmHg 91%
    18:00 +27°C° 0.2 mm 5 m/s 755 mmHg 91%
    19:00 +27°C° 0.2 mm 5 m/s 755 mmHg 92%
    20:00 +27°C° 0.2 mm 5 m/s 756 mmHg 93%
    21:00 +26°C° 0.3 mm 5 m/s 756 mmHg 93%
    22:00 +26°C° 0.3 mm 5 m/s 756 mmHg 94%
    23:00 +26°C° 0.3 mm 4 m/s 756 mmHg 94%

    14 Décembre, Samedi

    Heure Température Précipitation Vent Pression Humidité
    00:00 +26°C° 0.4 mm 4 m/s 756 mmHg 95%
    01:00 +26°C° 0.4 mm 4 m/s 755 mmHg 96%
    02:00 +25°C° 0.4 mm 4 m/s 755 mmHg 96%
    03:00 +25°C° 0.7 mm 4 m/s 755 mmHg 97%
    04:00 +25°C° 0.7 mm 4 m/s 755 mmHg 97%
    05:00 +25°C° 0.7 mm 3 m/s 755 mmHg 98%
    06:00 +26°C° 0.3 mm 4 m/s 756 mmHg 94%
    07:00 +27°C° 0.3 mm 4 m/s 756 mmHg 90%
    08:00 +28°C° 0.3 mm 4 m/s 757 mmHg 85%
    09:00 +30°C° 0.6 mm 4 m/s 757 mmHg 77%
    10:00 +32°C° 0.6 mm 4 m/s 757 mmHg 69%
    11:00 +34°C° 0.6 mm 4 m/s 757 mmHg 61%
    12:00 +33°C° 0.9 mm 5 m/s 756 mmHg 69%
    13:00 +32°C° 0.9 mm 5 m/s 755 mmHg 77%
    14:00 +30°C° 0.9 mm 6 m/s 755 mmHg 85%
    15:00 +29°C° 0.1 mm 6 m/s 755 mmHg 84%
    16:00 +29°C° 0.1 mm 6 m/s 755 mmHg 83%
    17:00 +28°C° 0.1 mm 6 m/s 755 mmHg 82%
    18:00 +28°C° 0.7 mm 6 m/s 755 mmHg 87%
    19:00 +27°C° 0.7 mm 6 m/s 756 mmHg 91%
    20:00 +26°C° 0.7 mm 5 m/s 757 mmHg 95%
    21:00 +26°C° 1.1 mm 5 m/s 757 mmHg 95%
    22:00 +26°C° 1.1 mm 5 m/s 757 mmHg 96%
    23:00 +26°C° 1.1 mm 4 m/s 757 mmHg 96%
    Voir plus